Flag for Germany Weather past 2 weeks in Bayreuth, Bavaria, Germany

Now
43 °F

Mostly cloudy.


Feels Like: 36 °F
Forecast: 41 / 50 °F
Wind: 12 mph from West

Location: Grafenwoehr

Current Time: Oct 22, 2014 at 11:42:20 AM

Latest Report: Oct 22, 2014 at 10:58 AM


Visibility: N/A

Pressure: 29.87 "Hg

Humidity: 100%

Dew point: 43 °F

Location of BayreuthLocation

Historic Weather in Bayreuth — Graph

°F

Bayreuth temperature yesterday

Maximum temperature yesterday: 57 °F (at 1:58 PM)
Minimum temperature yesterday: 41 °F (at 6:58 AM)
Average temperature yesterday: 50 °F

Past Weeks' High & Low Weather Summary

 TemperatureHumidityPressure
High75 °F (Oct 9, 3:58 PM)100% (Oct 8, 2:58 AM)30.28 "Hg (Oct 8, 2:58 AM)
Low39 °F (Oct 22, 8:58 AM)47% (Oct 9, 3:58 PM)29.55 "Hg (Oct 21, 9:01 PM)
Average55 °F89%29.93 "Hg
* Reported Oct 7 10:04 AM — Oct 22 10:58 AM, Bayreuth, Weather by CustomWeather, © 2014

Note: Actual official high and low records may vary slightly from our data, if they occured in-between our weather recording intervals... More about our weather records

Advertising

Bayreuth weather history for previous 24 hours

 ConditionsComfort  
Time TempWeatherWind HumidityBarometerVisibility
10:58 AM
Oct 22
43 °FMostly cloudy.12 mph100%29.87 "HgN/A
9:58 AM41 °FDrizzle. Mostly cloudy.13 mph100%29.86 "HgN/A
8:58 AM39 °FLight rain. Overcast.9 mph100%29.85 "HgN/A
8:01 AM41 °FDrizzle. Overcast.12 mph93%29.80 "HgN/A
7:58 AM41 °FOvercast.12 mph87%29.83 "HgN/A
6:58 AM43 °FDrizzle. Overcast.9 mph76%29.81 "HgN/A
5:58 AM43 °FOvercast.10 mph76%29.78 "HgN/A
4:58 AM43 °FOvercast.13 mph76%29.78 "HgN/A
3:58 AM43 °FOvercast.13 mph76%29.79 "HgN/A
2:58 AM43 °FMostly cloudy.15 mph87%29.80 "HgN/A
1:58 AM45 °FDrizzle. Mostly cloudy.15 mph81%29.79 "HgN/A
12:58 AM45 °FMostly cloudy.16 mph87%29.78 "HgN/A
11:58 PM
Oct 21
46 °FOvercast.18 mph93%29.74 "HgN/A
11:54 PM46 °FOvercast.15 mph93%29.73 "HgN/A
11:03 PM46 °FLight rain. Partly cloudy.13 mph100%29.64 "HgN/A
10:58 PM46 °FPartly cloudy.10 mph100%29.67 "HgN/A
10:02 PM48 °FPartly cloudy.7 mph100%29.61 "HgN/A
9:58 PM48 °FLight rain. Partly cloudy.10 mph100%29.61 "HgN/A
9:01 PM52 °FDrizzle. Mostly cloudy.6 mphN/A29.55 "HgN/A
8:58 PM52 °FOvercast.6 mphN/A29.56 "HgN/A
7:58 PM52 °FMostly cloudy.3 mph100%29.61 "HgN/A
6:58 PM54 °FLight rain. Mostly cloudy.3 mph94%29.66 "HgN/A
5:58 PM55 °FCloudy.2 mph77%29.68 "HgN/A
4:58 PM57 °FBroken clouds.7 mph77%29.71 "HgN/A
3:58 PM57 °FOvercast.5 mph77%29.75 "HgN/A
2:58 PM57 °FMore clouds than sun.7 mph88%29.78 "HgN/A
1:58 PM57 °FMore clouds than sun.6 mph88%29.80 "HgN/A
12:58 PM55 °FMostly cloudy.8 mphN/A29.85 "HgN/A
11:58 AM55 °FBroken clouds.6 mphN/A29.88 "HgN/A
Weather by CustomWeather, © 2014

See weather overviewHow to use our weather pages